Miscellaneous Local Product
Issued by NWS North Platte, NE

Home | Current Version | Previous Version | Graphics & Text | Print | Product List | Glossary On
Versions: 1 2 3 4 5 6 7 8 9 10 11 12 13 14 15 16 17 18 19 20 21 22 23 24 25 26 27 28 29 30 31 32 33 34 35 36 37 38 39 40 41 42 43 44 45 46 47 48 49 50
000
AXUS43 KLBF 300610
MISLBF


WESTERN AND NORTH CENTRAL NEBRASKA HOURLY WEATHER ROUNDUP
NATIONAL WEATHER SERVICE NORTH PLATTE NE
100 AM CDT SAT MAY 30 2015

***STATIONS NOT REPORTING VARIABLES SUCH AS SKY/WEATHER OR
PRESSURE ARE PROVIDED BY THE NEBRASKA DEPARTMENT OF
ROADS...RAWS...AND APRS NETWORKS...AND ARE NOT UNDER
NATIONAL WEATHER SERVICE QUALITY CONTROL***

...OBSERVATIONS IN AND NEAR THE EASTERN PANHANDLE OF NEBRASKA...

CITY           SKY/WX    TMP DP  RH WIND       PRES   REMARKS
PINE RIDGE     CLEAR     37  34  89 E3        30.30R
CHADRON        CLEAR     43  41  93 S3        30.30S
ALLIANCE       CLEAR     41  40  96 NW3       30.29S FOG
SIDNEY         CLOUDY    46  43  89 NE9       30.31R
WHITECLAY        N/A     36  35  96 CALM        N/A
BIG SPRINGS      N/A     49  45  85 N3          N/A
$$

...OBSERVATIONS IN NORTH CENTRAL NEBRASKA...

CITY           SKY/WX    TMP DP  RH WIND       PRES   REMARKS
VALENTINE      MOCLDY    43  39  86 NW7       30.28S
THEDFORD       PTCLDY    42  41  96 CALM      30.29R
AINSWORTH      CLEAR     42  40  91 N6        30.27R
O`NEILL        CLOUDY    48  45  90 NW12      30.24R
ORD            CLOUDY    49  42  77 N17       30.21R
BROKEN BOW     CLOUDY    49  42  77 N15       30.24R
BROWNLEE         N/A     46  44  91 E8          N/A
VALENTINE NWR    N/A     43  43  99 N8          N/A
SPRINGVIEW       N/A     41  38  89 W3          N/A
HALSEY           N/A     45  44  97 NW6         N/A
NEWPORT          N/A     44  41  89 NW7         N/A
SARGENT          N/A     47  43  86 CALM        N/A
CHAMBERS         N/A     48  45  91 N3G12       N/A
EWING            N/A     48  45  90 N7          N/A
$$

...OBSERVATIONS IN SOUTHWEST NEBRASKA AND FAR NORTHEAST COLORADO...

CITY           SKY/WX    TMP DP  RH WIND       PRES   REMARKS
WRAY           CLOUDY    51  47  86 N10       30.31R
HOLYOKE        CLOUDY    50  45  81 N13       30.31R
IMPERIAL       CLOUDY    49  43  80 N14       30.29R
OGALLALA       CLEAR     44  42  91 N5        30.29F
NORTH PLATTE   PTCLDY    46  42  86 NW6       30.28S
MCCOOK         CLOUDY    51  46  83 N17       30.27R
LEXINGTON      MOCLDY    50  46  85 N15       30.24S
PAXTON           N/A     48  44  86 NW5         N/A
GOTHENBURG       N/A     48  40  75 NW8         N/A
CALLAWAY         N/A     47  45  92 N12         N/A
$$

...NORTH PLATTE AREA...

CITY           SKY/WX    TMP DP  RH WIND       PRES   REMARKS
AIRPORT        PTCLDY    46  42  86 NW6       30.28S
DOWNTOWN         N/A     47  42  84 N3          N/A
$$

...SOME WEATHER OBSERVATIONS FROM AROUND THE REGION...

CITY           SKY/WX    TMP DP  RH WIND       PRES   REMARKS
DENVER         MOCLDY    48  44  86 E8        30.34R
LARAMIE        CLEAR     39  36  89 CALM      30.34S
CHEYENNE       MOCLDY    42  41  96 W8        30.33S FOG
SCOTTSBLUFF    CLOUDY    48  46  93 NE7       30.30S
RAPID CITY     CLEAR     38  36  92 CALM      30.30S
PIERRE         PTCLDY    42  38  85 N7        30.27R
WINNER         FAIR      41  36  82 NW8       30.26S
SIOUX FALLS    PTCLDY    48  43  82 N12       30.15R
OMAHA          CLOUDY    54  50  86 N20       30.07R
GRAND ISLAND   LGT RAIN  49  46  90 N21       30.20R
KANSAS CITY    CLOUDY    63  63 100 CALM      29.97F
WICHITA        MOCLDY    64  55  72 N13       30.03R
HAYS           CLOUDY    55  45  67 N21G29    30.19R
LIBERAL        MOCLDY    57  52  82 N16       30.21R
GOODLAND       CLOUDY    51  47  86 N14       30.29R
$$



USA.gov is the U.S. government's official web portal to all federal, state and local government web resources and services.